Time,TemperatureF,DewpointF,PressureIn,WindDirection,WindDirectionDegrees,WindSpeedMPH,WindSpeedGustMPH,Humidity,HourlyPrecipIn,Conditions,Clouds,dailyrainin,SoftwareType,DateUTC
2013-03-29 00:04:00,23.9,21.0,30.35,WNW,295,12.0,-999.0,89,-99.99,,,0.00,weatherlink.com 1.10,2013-03-29 04:04:00,
2013-03-29 00:19:00,23.9,21.0,30.34,West,264,5.0,-999.0,89,-99.99,,,0.00,weatherlink.com 1.10,2013-03-29 04:19:00,
2013-03-29 00:34:00,23.9,21.0,30.34,NNW,327,0.0,-999.0,89,-99.99,,,0.00,weatherlink.com 1.10,2013-03-29 04:34:00,
2013-03-29 00:49:00,24.0,21.0,30.34,NW,319,3.0,-999.0,89,-99.99,,,0.00,weatherlink.com 1.10,2013-03-29 04:49:00,
2013-03-29 01:04:00,24.0,21.0,30.34,SW,226,5.0,-999.0,89,-99.99,,,0.00,weatherlink.com 1.10,2013-03-29 05:04:00,
2013-03-29 01:19:00,24.0,21.0,30.34,West,259,12.0,-999.0,89,-99.99,,,0.00,weatherlink.com 1.10,2013-03-29 05:19:00,
2013-03-29 01:34:00,24.0,21.0,30.34,WSW,251,8.0,-999.0,89,-99.99,,,0.00,weatherlink.com 1.10,2013-03-29 05:34:00,
2013-03-29 01:49:00,24.0,21.0,30.34,NNW,327,6.0,-999.0,89,-99.99,,,0.00,weatherlink.com 1.10,2013-03-29 05:49:00,
2013-03-29 02:04:00,24.0,21.0,30.34,SW,236,4.0,-999.0,89,-99.99,,,0.00,weatherlink.com 1.10,2013-03-29 06:04:00,
2013-03-29 02:22:00,24.0,21.0,30.34,West,281,11.0,-999.0,89,-99.99,,,0.00,weatherlink.com 1.10,2013-03-29 06:22:00,
2013-03-29 02:49:00,24.0,21.0,30.34,WNW,284,8.0,-999.0,89,-99.99,,,0.00,weatherlink.com 1.10,2013-03-29 06:49:00,
2013-03-29 03:04:00,24.0,21.0,30.34,WNW,301,6.0,-999.0,89,-99.99,,,0.00,weatherlink.com 1.10,2013-03-29 07:04:00,
2013-03-29 03:19:00,24.0,21.0,30.34,SW,225,2.0,-999.0,89,-99.99,,,0.00,weatherlink.com 1.10,2013-03-29 07:19:00,
2013-03-29 03:34:00,24.0,21.0,30.34,WNW,303,11.0,-999.0,89,-99.99,,,0.00,weatherlink.com 1.10,2013-03-29 07:34:00,
2013-03-29 03:49:00,24.0,21.0,30.33,West,260,7.0,-999.0,89,-99.99,,,0.00,weatherlink.com 1.10,2013-03-29 07:49:00,
2013-03-29 04:04:00,24.0,21.0,30.33,WSW,254,7.0,-999.0,89,-99.99,,,0.00,weatherlink.com 1.10,2013-03-29 08:04:00,
2013-03-29 04:19:00,24.0,21.0,30.33,WSW,237,11.0,-999.0,89,-99.99,,,0.00,weatherlink.com 1.10,2013-03-29 08:19:00,
2013-03-29 04:34:00,24.0,21.0,30.32,West,268,9.0,-999.0,89,-99.99,,,0.00,weatherlink.com 1.10,2013-03-29 08:34:00,
2013-03-29 04:49:00,24.0,21.0,30.33,SW,232,3.0,-999.0,89,-99.99,,,0.00,weatherlink.com 1.10,2013-03-29 08:49:00,
2013-03-29 05:04:00,24.0,21.0,30.32,West,270,6.0,-999.0,89,-99.99,,,0.00,weatherlink.com 1.10,2013-03-29 09:04:00,
2013-03-29 05:19:00,24.0,21.0,30.33,WSW,238,5.0,-999.0,88,-99.99,,,0.00,weatherlink.com 1.10,2013-03-29 09:19:00,
2013-03-29 05:34:00,24.1,21.0,30.33,SW,229,6.0,-999.0,88,-99.99,,,0.00,weatherlink.com 1.10,2013-03-29 09:34:00,
2013-03-29 05:49:00,24.1,21.0,30.33,WSW,243,7.0,-999.0,88,-99.99,,,0.00,weatherlink.com 1.10,2013-03-29 09:49:00,
2013-03-29 06:04:00,24.1,21.0,30.33,SW,223,6.0,-999.0,88,-99.99,,,0.00,weatherlink.com 1.10,2013-03-29 10:04:00,
2013-03-29 06:19:00,24.2,21.0,30.33,WSW,248,5.0,-999.0,88,-99.99,,,0.00,weatherlink.com 1.10,2013-03-29 10:19:00,
2013-03-29 06:34:00,24.2,21.0,30.34,WSW,253,0.0,-999.0,88,-99.99,,,0.00,weatherlink.com 1.10,2013-03-29 10:34:00,
2013-03-29 07:05:00,24.2,21.0,30.34,WSW,256,4.0,-999.0,88,-99.99,,,0.00,weatherlink.com 1.10,2013-03-29 11:05:00,
2013-03-29 07:20:00,24.2,21.0,30.35,WSW,242,6.0,-999.0,88,-99.99,,,0.00,weatherlink.com 1.10,2013-03-29 11:20:00,
2013-03-29 07:35:00,24.2,21.0,30.35,SW,222,5.0,-999.0,88,-99.99,,,0.00,weatherlink.com 1.10,2013-03-29 11:35:00,
2013-03-29 07:50:00,24.2,21.0,30.35,West,261,2.0,-999.0,88,-99.99,,,0.00,weatherlink.com 1.10,2013-03-29 11:50:00,
2013-03-29 08:05:00,24.1,21.0,30.36,West,271,7.0,-999.0,89,-99.99,,,0.00,weatherlink.com 1.10,2013-03-29 12:05:00,
2013-03-29 08:20:00,24.0,21.0,30.35,WNW,286,3.0,-999.0,89,-99.99,,,0.00,weatherlink.com 1.10,2013-03-29 12:20:00,
2013-03-29 08:35:00,24.0,21.0,30.35,WSW,255,4.0,-999.0,89,-99.99,,,0.00,weatherlink.com 1.10,2013-03-29 12:35:00,
2013-03-29 08:50:00,24.3,21.0,30.35,West,260,9.0,-999.0,88,-99.99,,,0.00,weatherlink.com 1.10,2013-03-29 12:50:00,
2013-03-29 09:05:00,24.8,22.0,30.35,WSW,250,4.0,-999.0,87,-99.99,,,0.00,weatherlink.com 1.10,2013-03-29 13:05:00,
2013-03-29 09:20:00,25.3,22.0,30.35,West,270,6.0,-999.0,87,-99.99,,,0.00,weatherlink.com 1.10,2013-03-29 13:20:00,
2013-03-29 09:35:00,25.7,22.0,30.35,West,265,5.0,-999.0,87,-99.99,,,0.00,weatherlink.com 1.10,2013-03-29 13:35:00,
2013-03-29 09:50:00,25.6,23.0,30.35,WSW,257,9.0,-999.0,88,-99.99,,,0.00,weatherlink.com 1.10,2013-03-29 13:50:00,
2013-03-29 10:05:00,25.9,23.0,30.35,West,269,5.0,-999.0,87,-99.99,,,0.00,weatherlink.com 1.10,2013-03-29 14:05:00,
2013-03-29 10:20:00,26.0,23.0,30.35,West,276,5.0,-999.0,87,-99.99,,,0.00,weatherlink.com 1.10,2013-03-29 14:20:00,
2013-03-29 10:35:00,26.4,23.0,30.35,WSW,238,10.0,-999.0,86,-99.99,,,0.00,weatherlink.com 1.10,2013-03-29 14:35:00,
2013-03-29 10:50:00,26.8,23.0,30.36,WSW,248,4.0,-999.0,85,-99.99,,,0.00,weatherlink.com 1.10,2013-03-29 14:50:00,
2013-03-29 11:05:00,27.3,23.0,30.36,NW,313,6.0,-999.0,84,-99.99,,,0.00,weatherlink.com 1.10,2013-03-29 15:05:00,
2013-03-29 11:20:00,27.2,23.0,30.36,NW,317,8.0,-999.0,85,-99.99,,,0.00,weatherlink.com 1.10,2013-03-29 15:20:00,
2013-03-29 11:35:00,27.9,23.0,30.36,SW,218,8.0,-999.0,83,-99.99,,,0.00,weatherlink.com 1.10,2013-03-29 15:35:00,
2013-03-29 11:50:00,28.0,24.0,30.36,WNW,292,5.0,-999.0,84,-99.99,,,0.01,weatherlink.com 1.10,2013-03-29 15:50:00,
2013-03-29 12:05:00,27.8,24.0,30.36,WSW,257,5.0,-999.0,84,-99.99,,,0.01,weatherlink.com 1.10,2013-03-29 16:05:00,
2013-03-29 12:20:00,28.5,24.0,30.36,SW,236,7.0,-999.0,83,-99.99,,,0.01,weatherlink.com 1.10,2013-03-29 16:20:00,
2013-03-29 12:35:00,28.6,24.0,30.35,WSW,241,8.0,-999.0,83,-99.99,,,0.01,weatherlink.com 1.10,2013-03-29 16:35:00,
2013-03-29 12:50:00,29.0,25.0,30.35,West,267,7.0,-999.0,83,-99.99,,,0.01,weatherlink.com 1.10,2013-03-29 16:50:00,
2013-03-29 13:05:00,28.8,24.0,30.34,West,261,2.0,-999.0,83,-99.99,,,0.01,weatherlink.com 1.10,2013-03-29 17:05:00,
2013-03-29 13:20:00,29.3,24.0,30.34,WSW,238,6.0,-999.0,82,-99.99,,,0.01,weatherlink.com 1.10,2013-03-29 17:20:00,
2013-03-29 13:35:00,29.3,24.0,30.33,SW,236,12.0,-999.0,81,-99.99,,,0.01,weatherlink.com 1.10,2013-03-29 17:35:00,
2013-03-29 13:50:00,29.3,24.0,30.32,West,266,13.0,-999.0,81,-99.99,,,0.01,weatherlink.com 1.10,2013-03-29 17:50:00,
2013-03-29 14:05:00,29.4,25.0,30.32,SW,227,7.0,-999.0,82,-99.99,,,0.01,weatherlink.com 1.10,2013-03-29 18:05:00,
2013-03-29 14:20:00,29.6,24.0,30.31,WSW,252,10.0,-999.0,81,-99.99,,,0.01,weatherlink.com 1.10,2013-03-29 18:20:00,
2013-03-29 14:35:00,29.4,24.0,30.30,SW,227,8.0,-999.0,81,-99.99,,,0.01,weatherlink.com 1.10,2013-03-29 18:35:00,
2013-03-29 14:50:00,29.2,24.0,30.30,WSW,251,9.0,-999.0,81,-99.99,,,0.01,weatherlink.com 1.10,2013-03-29 18:50:00,
2013-03-29 15:05:00,29.1,24.0,30.30,WSW,250,7.0,-999.0,80,-99.99,,,0.01,weatherlink.com 1.10,2013-03-29 19:05:00,
2013-03-29 15:20:00,28.4,23.0,30.29,WSW,250,11.0,-999.0,81,-99.99,,,0.01,weatherlink.com 1.10,2013-03-29 19:20:00,
2013-03-29 15:35:00,29.5,23.0,30.29,West,271,15.0,-999.0,77,-99.99,,,0.01,weatherlink.com 1.10,2013-03-29 19:35:00,
2013-03-29 15:50:00,29.7,23.0,30.29,West,275,7.0,-999.0,75,-99.99,,,0.01,weatherlink.com 1.10,2013-03-29 19:50:00,
2013-03-29 16:05:00,29.4,22.0,30.28,WSW,244,5.0,-999.0,75,-99.99,,,0.01,weatherlink.com 1.10,2013-03-29 20:05:00,
2013-03-29 16:20:00,29.2,22.0,30.28,West,276,7.0,-999.0,75,-99.99,,,0.01,weatherlink.com 1.10,2013-03-29 20:20:00,
2013-03-29 16:35:00,29.7,23.0,30.28,SW,232,4.0,-999.0,75,-99.99,,,0.01,weatherlink.com 1.10,2013-03-29 20:35:00,
2013-03-29 16:50:00,29.7,23.0,30.27,WSW,252,13.0,-999.0,76,-99.99,,,0.01,weatherlink.com 1.10,2013-03-29 20:50:00,
2013-03-29 17:05:00,29.9,24.0,30.28,WSW,239,8.0,-999.0,80,-99.99,,,0.01,weatherlink.com 1.10,2013-03-29 21:05:00,
2013-03-29 17:20:00,29.7,26.0,30.27,WSW,257,11.0,-999.0,85,-99.99,,,0.01,weatherlink.com 1.10,2013-03-29 21:20:00,
2013-03-29 17:35:00,30.3,28.0,30.27,West,263,7.0,-999.0,89,-99.99,,,0.01,weatherlink.com 1.10,2013-03-29 21:35:00,
2013-03-29 17:50:00,31.1,29.0,30.27,SW,223,7.0,-999.0,90,-99.99,,,0.01,weatherlink.com 1.10,2013-03-29 21:50:00,
2013-03-29 18:05:00,30.9,29.0,30.27,WSW,242,10.0,-999.0,91,-99.99,,,0.01,weatherlink.com 1.10,2013-03-29 22:05:00,
2013-03-29 18:20:00,31.1,29.0,30.27,SSW,211,4.0,-999.0,91,-99.99,,,0.01,weatherlink.com 1.10,2013-03-29 22:20:00,
2013-03-29 18:35:00,30.7,29.0,30.27,WSW,248,11.0,-999.0,92,-99.99,,,0.01,weatherlink.com 1.10,2013-03-29 22:35:00,
2013-03-29 18:50:00,30.4,28.0,30.28,WNW,298,9.0,-999.0,92,-99.99,,,0.01,weatherlink.com 1.10,2013-03-29 22:50:00,
2013-03-29 19:05:00,30.3,28.0,30.28,WNW,286,3.0,-999.0,92,-99.99,,,0.01,weatherlink.com 1.10,2013-03-29 23:05:00,
2013-03-29 19:20:00,30.1,28.0,30.27,WNW,290,1.0,-999.0,92,-99.99,,,0.01,weatherlink.com 1.10,2013-03-29 23:20:00,
2013-03-29 19:35:00,29.9,28.0,30.27,WSW,244,9.0,-999.0,91,-99.99,,,0.01,weatherlink.com 1.10,2013-03-29 23:35:00,
2013-03-29 19:51:00,29.7,27.0,30.28,WNW,283,4.0,-999.0,91,-99.99,,,0.01,weatherlink.com 1.10,2013-03-29 23:51:00,
2013-03-29 20:06:00,29.7,27.0,30.28,West,259,4.0,-999.0,90,-99.99,,,0.01,weatherlink.com 1.10,2013-03-30 00:06:00,
2013-03-29 20:21:00,29.6,27.0,30.28,SW,216,1.0,-999.0,91,-99.99,,,0.01,weatherlink.com 1.10,2013-03-30 00:21:00,
2013-03-29 20:36:00,29.9,27.0,30.29,WSW,243,11.0,-999.0,88,-99.99,,,0.01,weatherlink.com 1.10,2013-03-30 00:36:00,
2013-03-29 20:51:00,29.4,27.0,30.29,SW,234,7.0,-999.0,90,-99.99,,,0.01,weatherlink.com 1.10,2013-03-30 00:51:00,
2013-03-29 21:06:00,29.4,27.0,30.29,West,270,2.0,-999.0,90,-99.99,,,0.01,weatherlink.com 1.10,2013-03-30 01:06:00,
2013-03-29 21:21:00,29.2,26.0,30.29,SW,232,5.0,-999.0,89,-99.99,,,0.01,weatherlink.com 1.10,2013-03-30 01:21:00,
2013-03-29 21:36:00,29.6,26.0,30.29,WSW,246,9.0,-999.0,87,-99.99,,,0.01,weatherlink.com 1.10,2013-03-30 01:36:00,
2013-03-29 21:51:00,29.7,26.0,30.29,WSW,242,4.0,-999.0,87,-99.99,,,0.01,weatherlink.com 1.10,2013-03-30 01:51:00,
2013-03-29 22:07:00,29.7,27.0,30.29,West,280,4.0,-999.0,88,-99.99,,,0.01,weatherlink.com 1.10,2013-03-30 02:07:00,
2013-03-29 22:21:00,29.1,26.0,30.29,WSW,248,4.0,-999.0,88,-99.99,,,0.01,weatherlink.com 1.10,2013-03-30 02:21:00,
2013-03-29 22:36:00,28.9,26.0,30.29,SW,232,5.0,-999.0,88,-99.99,,,0.01,weatherlink.com 1.10,2013-03-30 02:36:00,
2013-03-29 23:06:00,29.3,26.0,30.29,WSW,248,7.0,-999.0,86,-99.99,,,0.01,weatherlink.com 1.10,2013-03-30 03:06:00,
2013-03-29 23:36:00,29.2,25.0,30.29,SW,230,6.0,-999.0,85,-99.99,,,0.01,weatherlink.com 1.10,2013-03-30 03:36:00,
2013-03-29 23:51:00,29.0,25.0,30.28,WSW,254,9.0,-999.0,86,-99.99,,,0.01,weatherlink.com 1.10,2013-03-30 03:51:00,